Погода в Мамацеве

Россия / Республика Адыгея     44°56′36″N   39°59′28″E
темп.,
°C
ветер,
м/с
пор.,
м/с
влажн.,
%
обл.,
%
осадки,
мм/ч
давл.,
гПа
погр.,
м
15 мая, сб
сб1500:00+16зюз478910 0.0 1011101
03:00+14зюз34883 0.0 101256
06:00+14зюз34820 0.0 101485
09:00+20зюз22675 0.0 1014348
12:00+23сз22625 0.0 1014600
15:00+25ссз225945 0.0 1013909
18:00+25всв12730 0.0 1013335
21:00+20св45870 0.0 101265
16 мая, вс
вс1600:00+18всв22930 0.0 101133
03:00+17всв119421 1.3 101111
06:00+18в23955 0.4 101086
09:00+22всв3485100 0.4 1009440
12:00+26всв4571100 0.0 1007976
15:00+28всв5768100 0.0 10051359
18:00+26в49769 0.0 1003382
21:00+21в411881 0.0 1003226
17 мая, пн
пн1700:00+18вюв34830 0.0 100254
03:00+17ю129218 0.0 100216
06:00+17з369190 0.0 1004146
09:00+22зсз5775100 0.0 1006606
12:00+23з6763100 0.0 1008855
15:00+22зсз587297 0.8 1008698
18:00+18з3686100 3.9 1009134
21:00+17юз3793100 4.6 1011155
18 мая, вт
вт1800:00+15ю2494100 1.6 1011114
03:00+14з3793100 2.2 1011186
06:00+14зюз2593100 0.1 1013135
09:00+19зюз457848 0.1 1013615
12:00+22з45643 0.0 10131180
15:00+23з56610 0.0 10121302
18:00+20з367516 0.0 1013295
21:00+15зюз22834 0.0 101414
19 мая, ср
ср1900:00+14ююз22845 0.0 101311
03:00+14ююв22925 0.0 101316
06:00+15юв11892 0.0 101444
09:00+20в227461 0.0 1014393
12:00+24юв236028 0.0 10131084
15:00+26вюв12555 0.0 10121369
18:00+25ссв126949 0.0 1011149
21:00+19ссв348015 0.1 101256